Weather History for Bluefield, WV

Change the Weather History Date:

Monday, February 11, 2013

  Actual Average Record
Temperature  
Mean Temperature 50 °F 36 °F  
Max Temperature 57 °F 45 °F 69 °F (1965)
Min Temperature 42 °F 28 °F 0 °F (1968)
Degree Days  
Heating Degree Days 15 28  
Month to date heating degree days 327 322  
Since 1 July heating degree days 2903 3042  
Cooling Degree Days 0 0  
Month to date cooling degree days 0 0  
Year to date cooling degree days 1 0  
Moisture  
Dew Point 39 °F    
Average Humidity 55    
Maximum Humidity 77    
Minimum Humidity 33    
Precipitation  
Precipitation 0.01 in 0.10 in 1.61 in (1994)
Month to date precipitation 0.59 1.05  
Year to date precipitation 6.59 3.95  
Snow  
Snow 0.00 in - - ()
Month to date snowfall 6.0  
Since 1 July snowfall 34.5  
Snow Depth 0.00 in    
Sea Level Pressure  
Sea Level Pressure 29.95 in    
Wind  
Wind Speed 15 mph (SW)    
Max Wind Speed 29 mph    
Max Gust Speed 40 mph    
Visibility 10 miles    
Events Rain    
T = Trace of Precipitation, MM = Missing Value Source: NWS Daily Summary

Daily Weather History Graph

Daily Weather History Graph

Search for Another Location

Airport:

Trip Planner

Search our weather history database for the weather conditions in past years. The results will help you decide how hot, cold, wet, or windy it might be!

Date:

Astronomy

Feb. 11, 2013 Rise Set
Actual Time 7:18 AM EST 6:00 PM EST
Civil Twilight 6:51 AM EST 6:27 PM EST
Nautical Twilight 6:20 AM EST 6:58 PM EST
Astronomical Twilight 5:50 AM EST 7:28 PM EST
Moon 7:44 AM EST (2/11) 7:52 PM EST (2/11)
Length of Visible Light 11h 36m
Length of Day
10h 42m
Waxing Crescent, 3% of the Moon is Illuminated
Feb 11
Waxing Crescent
Feb 17
First Quarter
Feb 25
Full
Mar 4
Last Quarter
Mar 11
New

Hourly Weather History & Observations

Time (EST) Temp. Windchill Dew Point Humidity Pressure Visibility Wind Dir Wind Speed Gust Speed Precip Events Conditions
12:19 AM 44.6 °F 37.8 °F 37.4 °F 76% 30.02 in 10.0 mi SSE 15.0 mph 31.1 mph N/A   Scattered Clouds
12:28 AM 44.6 °F 36.4 °F 37.4 °F 76% 30.02 in 10.0 mi South 20.7 mph 31.1 mph N/A   Mostly Cloudy
12:52 AM 45.0 °F 38.9 °F 37.9 °F 76% 30.00 in 10.0 mi South 12.7 mph 33.4 mph N/A   Overcast
1:37 AM 46.4 °F 40.1 °F 39.2 °F 76% 30.02 in 10.0 mi South 15.0 mph 25.3 mph N/A   Scattered Clouds
1:52 AM 46.0 °F 39.9 °F 39.0 °F 76% 29.99 in 10.0 mi SSE 13.8 mph 21.9 mph N/A   Scattered Clouds
2:52 AM 48.0 °F - 41.0 °F 77% 29.95 in 10.0 mi South 12.7 mph 20.7 mph N/A   Scattered Clouds
3:52 AM 50.0 °F - 43.0 °F 77% 29.96 in 10.0 mi SSW 8.1 mph - 0.00 in Rain Light Rain
4:52 AM 51.1 °F - 43.0 °F 74% 29.94 in 10.0 mi South 10.4 mph - 0.00 in   Mostly Cloudy
5:52 AM 52.0 °F - 44.1 °F 74% 29.95 in 10.0 mi SSW 9.2 mph 20.7 mph N/A   Overcast
6:52 AM 54.0 °F - 45.0 °F 72% 29.94 in 10.0 mi SW 5.8 mph - 0.00 in   Overcast
7:14 AM 53.6 °F - 44.6 °F 72% 29.98 in 10.0 mi WSW 6.9 mph - N/A   Overcast
7:40 AM 53.6 °F - 46.4 °F 77% 29.97 in 10.0 mi SW 10.4 mph - 0.00 in Rain Light Rain
7:52 AM 54.0 °F - 46.0 °F 75% 29.96 in 10.0 mi SSW 11.5 mph 20.7 mph 0.00 in Rain Light Rain
8:52 AM 54.0 °F - 46.9 °F 77% 29.96 in 10.0 mi SW 11.5 mph 17.3 mph 0.01 in Rain Light Rain
9:08 AM 53.6 °F - 46.4 °F 77% 29.98 in 10.0 mi SW 10.4 mph - 0.00 in Rain Light Rain
9:52 AM 55.0 °F - 46.9 °F 74% 29.96 in 10.0 mi WSW 17.3 mph 23.0 mph 0.00 in   Overcast
10:52 AM 55.0 °F - 46.9 °F 74% 29.95 in 10.0 mi West 21.9 mph 39.1 mph N/A   Overcast
11:52 AM 55.9 °F - 45.0 °F 67% 29.94 in 10.0 mi West 20.7 mph 33.4 mph N/A   Mostly Cloudy
12:00 PM 55.4 °F - 44.6 °F 67% 29.96 in 10.0 mi West 23.0 mph 38.0 mph N/A   Mostly Cloudy
12:52 PM 57.0 °F - 44.1 °F 62% 29.91 in 10.0 mi WSW 21.9 mph 32.2 mph N/A   Partly Cloudy
1:52 PM 55.9 °F - 42.1 °F 60% 29.90 in 10.0 mi West 19.6 mph 35.7 mph N/A   Partly Cloudy
2:52 PM 55.0 °F - 39.0 °F 55% 29.89 in 10.0 mi West 17.3 mph 32.2 mph N/A   Clear
3:52 PM 54.0 °F - 39.0 °F 57% 29.88 in 10.0 mi West 13.8 mph 24.2 mph N/A   Clear
4:52 PM 53.1 °F - 37.0 °F 55% 29.88 in 10.0 mi West 18.4 mph 29.9 mph N/A   Clear
5:52 PM 51.1 °F - 35.1 °F 54% 29.88 in 10.0 mi West 16.1 mph 27.6 mph N/A   Clear
6:52 PM 50.0 °F - 34.0 °F 54% 29.90 in 10.0 mi West 18.4 mph 31.1 mph N/A   Clear
7:52 PM 48.9 °F - 32.0 °F 52% 29.91 in 10.0 mi West 18.4 mph 27.6 mph N/A   Clear
8:52 PM 48.0 °F - 30.0 °F 50% 29.93 in 10.0 mi West 18.4 mph 25.3 mph N/A   Clear
9:52 PM 46.0 °F 39.9 °F 26.1 °F 46% 29.94 in 10.0 mi West 13.8 mph 20.7 mph N/A   Clear
10:52 PM 44.1 °F 38.1 °F 17.1 °F 34% 29.96 in 10.0 mi West 11.5 mph 24.2 mph N/A   Clear
11:52 PM 42.1 °F 34.9 °F 18.0 °F 38% 29.97 in 10.0 mi West 13.8 mph 23.0 mph N/A   Clear